DG2GG-6 Weather Reports


time (UTC)temp
C
wind
direction
speed
KPH
gust
KPH
rain 1hr
cm
rain 24hr
cm
rain mn
cm
humidity
%
barometer
mb
20260507144705 11 1 6.4 12.9 0.00 0.33 0.10 82 1014.5
20260507144205 11 327 6.4 12.9 0.00 0.33 0.10 83 1014.6
20260507143705 11 1 4.8 12.9 0.00 0.36 0.10 83 1014.7
20260507142705 10 0 4.8 9.7 0.00 0.36 0.10 86 1014.6
20260507142205 10 335 1.6 6.4 0.00 0.36 0.10 87 1014.7
20260507141704 10 292 1.6 6.4 0.00 0.36 0.10 87 1014.7
20260507141205 10 288 1.6 6.4 0.00 0.36 0.10 86 1014.7
20260507140705 10 344 3.2 8.0 0.00 0.36 0.10 86 1014.7
20260507140206 10 335 1.6 8.0 0.00 0.38 0.10 86 1014.7
20260507135705 10 0 1.6 11.3 0.00 0.38 0.10 85 1014.6
20260507135205 10 347 3.2 11.3 0.00 0.38 0.10 86 1014.7
20260507134706 10 330 3.2 11.3 0.00 0.38 0.10 85 1014.7
20260507134205 10 354 3.2 8.0 0.00 0.38 0.10 85 1014.7
20260507133705 10 321 1.6 8.0 0.00 0.38 0.10 85 1014.7
20260507131205 10 60 3.2 8.0 0.00 0.41 0.10 85 1014.6
20260507130705 10 39 3.2 8.0 0.00 0.41 0.10 85 1014.6
20260507130205 10 12 1.6 6.4 0.00 0.41 0.10 86 1014.7
20260507125705 10 320 3.2 4.8 0.00 0.41 0.10 86 1014.6
20260507124705 10 322 0.0 4.8 0.00 0.41 0.10 85 1014.7
20260507124205 10 25 0.0 6.4 0.00 0.41 0.10 85 1014.7
20260507123205 10 62 1.6 6.4 0.00 0.41 0.10 85 1014.6
20260507122706 10 60 0.0 3.2 0.00 0.41 0.10 85 1014.6
20260507122205 10 21 0.0 3.2 0.00 0.41 0.10 87 1014.6
20260507121705 10 327 0.0 3.2 0.00 0.41 0.10 87 1014.5
20260507121205 9 290 0.0 6.4 0.00 0.41 0.10 88 1014.5
20260507120705 9 298 1.6 6.4 0.00 0.43 0.10 89 1014.6
20260507120205 9 316 1.6 6.4 0.00 0.43 0.10 88 1014.6
20260507115705 9 1 3.2 6.4 0.00 0.43 0.10 88 1014.5
20260507114705 9 1 1.6 6.4 0.00 0.43 0.10 87 1014.6
20260507114205 9 13 1.6 8.0 0.00 0.43 0.10 89 1014.6
20260507113705 9 283 1.6 8.0 0.00 0.43 0.10 88 1014.6
20260507113205 9 288 3.2 8.0 0.00 0.46 0.10 88 1014.5
20260507112705 9 1 3.2 8.0 0.00 0.46 0.10 88 1014.5
20260507112205 9 311 3.2 8.0 0.00 0.46 0.10 88 1014.5
20260507111705 9 283 3.2 8.0 0.00 0.46 0.10 88 1014.5
20260507111205 10 359 3.2 8.0 0.00 0.46 0.10 88 1014.4
20260507110705 10 329 3.2 6.4 0.00 0.46 0.10 88 1014.4
20260507105705 9 326 1.6 4.8 0.00 0.46 0.10 89 1014.4
20260507105206 9 271 0.0 6.4 0.00 0.48 0.10 89 1014.4
20260507104705 9 284 0.0 9.7 0.00 0.51 0.10 89 1014.5
20260507104205 8 148 3.2 9.7 0.00 0.51 0.10 88 1014.4
20260507103705 8 232 4.8 9.7 0.00 0.51 0.10 88 1014.5
20260507103205 8 298 3.2 9.7 0.00 0.51 0.10 90 1014.5
20260507102706 8 260 3.2 9.7 0.00 0.64 0.10 91 1014.5
20260507102205 8 295 4.8 11.3 0.00 0.79 0.10 91 1014.5
20260507101705 8 333 4.8 11.3 0.00 0.81 0.10 91 1014.4
20260507101205 8 313 4.8 11.3 0.00 0.81 0.10 91 1014.4
20260507100705 8 251 4.8 8.0 0.00 0.81 0.10 91 1014.3
20260507100205 8 288 4.8 8.0 0.00 0.81 0.10 91 1014.3
20260507095705 8 290 4.8 8.0 0.00 0.81 0.10 90 1014.3
20260507094705 8 297 3.2 8.0 0.00 0.81 0.10 91 1014.3
20260507094205 8 245 1.6 6.4 0.00 0.81 0.10 91 1014.2
20260507093205 8 250 1.6 9.7 0.00 0.81 0.10 92 1014.1
20260507092705 8 250 3.2 9.7 0.00 0.81 0.10 92 1014.2
20260507091705 8 274 1.6 6.4 0.00 0.81 0.10 93 1014.2
20260507090705 8 269 1.6 6.4 0.00 0.81 0.10 92 1014.0
20260507090205 8 229 1.6 6.4 0.00 0.81 0.10 92 1014.0
20260507085705 8 288 1.6 6.4 0.00 0.81 0.10 93 1014.0
20260507085205 8 298 1.6 6.4 0.00 0.81 0.10 93 1014.0
20260507084705 8 268 1.6 6.4 0.00 0.81 0.10 93 1013.9
20260507084205 8 238 1.6 6.4 0.00 0.81 0.10 92 1013.8
20260507083705 7 248 3.2 8.0 0.00 0.81 0.10 92 1013.8
20260507082705 7 331 4.8 8.0 0.00 0.81 0.10 92 1013.8
20260507082205 7 281 3.2 8.0 0.00 0.81 0.10 93 1013.8
20260507081205 7 264 3.2 8.0 0.00 0.81 0.10 93 1013.7
20260507080205 8 191 4.8 9.7 0.00 0.81 0.10 93 1013.6
20260507075705 8 204 3.2 8.0 0.00 0.81 0.10 93 1013.6
20260507075205 8 224 3.2 8.0 0.00 0.81 0.10 93 1013.4
20260507074705 8 198 3.2 8.0 0.00 0.81 0.10 93 1013.4
20260507074205 8 224 1.6 8.0 0.00 0.81 0.10 92 1013.4
20260507073705 8 271 1.6 8.0 0.00 0.81 0.10 92 1013.2
20260507073205 8 120 1.6 8.0 0.00 0.81 0.10 92 1013.2
20260507072705 8 275 3.2 8.0 0.00 0.81 0.10 93 1013.2
20260507072205 8 196 1.6 6.4 0.00 0.81 0.10 94 1013.3
20260507070705 7 314 1.6 3.2 0.00 0.81 0.10 95 1013.1
20260507070205 7 314 0.0 4.8 0.00 0.81 0.10 95 1013.1
20260507065705 7 289 0.0 4.8 0.00 0.81 0.10 95 1013.1
20260507065205 7 305 1.6 4.8 0.00 0.81 0.10 95 1013.1
20260507064705 7 315 1.6 4.8 0.00 0.81 0.10 96 1013.0
20260507064206 7 314 1.6 4.8 0.00 0.81 0.10 95 1013.0
20260507063705 7 232 1.6 4.8 0.00 0.81 0.10 96 1013.0
20260507063206 7 288 0.0 4.8 0.00 0.81 0.10 96 1013.0
20260507062705 7 281 1.6 4.8 0.00 0.81 0.10 96 1013.0
20260507062206 7 281 1.6 4.8 0.00 0.81 0.10 96 1013.0
20260507061706 7 270 1.6 4.8 0.00 0.81 0.10 96 1012.9
20260507061205 7 314 1.6 4.8 0.00 0.81 0.10 96 1012.9
20260507060705 7 276 1.6 4.8 0.00 0.81 0.10 96 1012.8
20260507060205 7 276 1.6 4.8 0.00 0.81 0.10 96 1012.8
20260507055705 7 293 1.6 4.8 0.00 0.81 0.10 96 1012.8
20260507055204 6 307 1.6 4.8 0.00 0.81 0.10 96 1012.8
20260507054705 6 285 0.0 1.6 0.00 0.81 0.10 96 1012.8
20260507053704 6 267 0.0 4.8 0.00 0.81 0.10 96 1012.6
20260507052205 6 248 1.6 4.8 0.00 0.81 0.10 96 1012.4
20260507051705 6 235 0.0 3.2 0.03 0.81 0.10 96 1012.4
20260507051205 6 276 0.0 4.8 0.03 0.81 0.10 96 1012.2
20260507050706 6 254 1.6 4.8 0.03 0.81 0.10 96 1012.2
20260507050205 6 251 1.6 4.8 0.03 0.81 0.10 96 1012.1
20260507045205 6 309 0.0 1.6 0.03 0.81 0.10 96 1012.0
20260507044705 6 238 0.0 1.6 0.03 0.81 0.10 96 1011.9
20260507044205 6 238 0.0 1.6 0.03 0.81 0.10 96 1011.9
20260507043705 6 238 0.0 1.6 0.03 0.81 0.10 96 1011.9
20260507043205 6 238 0.0 1.6 0.03 0.81 0.10 96 1011.9
20260507042705 6 238 0.0 0.0 0.05 0.81 0.10 96 1011.8
20260507042205 6 238 0.0 0.0 0.05 0.81 0.10 96 1011.8
20260507041705 6 238 0.0 0.0 0.03 0.79 0.08 96 1011.8
20260507041205 6 238 0.0 0.0 0.03 0.79 0.08 96 1011.8
20260507035204 6 238 0.0 1.6 0.05 0.79 0.08 95 1011.6
20260507034705 6 238 0.0 1.6 0.05 0.79 0.08 95 1011.6
20260507034205 6 238 0.0 3.2 0.05 0.79 0.08 95 1011.6
20260507033205 6 212 0.0 3.2 0.05 0.79 0.05 95 1011.6
20260507032705 6 251 0.0 1.6 0.05 0.79 0.05 95 1011.5
20260507032205 6 251 0.0 3.2 0.05 0.79 0.05 95 1011.5
20260507031205 6 283 0.0 1.6 0.05 0.79 0.05 95 1011.4
20260507030205 6 283 0.0 0.0 0.05 0.76 0.05 95 1011.4
20260507025705 6 283 0.0 1.6 0.05 0.76 0.05 95 1011.3
20260507024205 6 283 0.0 0.0 0.05 0.76 0.05 95 1011.3
20260507023705 6 283 0.0 3.2 0.03 0.74 0.03 95 1011.3
20260507023205 6 283 0.0 3.2 0.03 0.74 0.03 94 1011.3
20260507022205 6 239 0.0 4.8 0.00 0.71 0.00 94 1011.2
20260507021705 6 239 0.0 4.8 0.00 0.71 0.00 94 1011.2
20260507021204 6 239 1.6 6.4 0.00 0.71 0.00 94 1011.1
20260507020705 6 242 1.6 6.4 0.00 0.71 0.00 94 1011.1
20260507020205 6 228 3.2 6.4 0.00 0.71 0.00 94 1010.9
20260507015705 6 235 1.6 6.4 0.00 0.71 0.00 94 1010.9
20260507015205 6 219 1.6 8.0 0.00 0.71 0.00 94 1010.8
20260507014705 6 225 1.6 8.0 0.00 0.71 0.00 94 1010.8
20260507014205 6 221 3.2 8.0 0.00 0.71 0.00 94 1010.8
20260507013205 6 225 1.6 3.2 0.00 0.71 0.00 93 1010.7
20260507012205 6 244 0.0 4.8 0.00 0.71 0.00 92 1010.7
20260507011205 6 242 1.6 9.7 0.00 0.71 0.00 91 1010.7
20260507010705 6 245 4.8 9.7 0.00 0.71 0.00 91 1010.7
20260507010205 6 231 3.2 12.9 0.00 0.71 0.00 91 1010.6
20260507005705 6 217 4.8 12.9 0.00 0.71 0.00 91 1010.6
20260507005205 6 245 6.4 14.5 0.00 0.71 0.00 91 1010.6
20260507004705 6 218 6.4 14.5 0.00 0.71 0.00 91 1010.6
20260507003705 6 203 3.2 8.0 0.00 0.71 0.00 92 1010.6
20260507002705 6 270 1.6 9.7 0.00 0.71 0.00 92 1010.5
20260507002205 6 300 3.2 8.0 0.00 0.71 0.00 92 1010.5
20260507001705 6 260 1.6 8.0 0.00 0.71 0.00 92 1010.5
20260507001233 6 229 1.6 8.0 0.00 0.71 0.00 92 1010.5
20260507000705 6 250 1.6 8.0 0.00 0.71 0.00 92 1010.6
20260507000205 6 217 0.0 6.4 0.00 0.71 0.00 92 1010.6
20260506235705 6 236 1.6 6.4 0.00 0.71 0.00 92 1010.6
20260506234705 6 188 0.0 8.0 0.00 0.71 0.00 91 1010.6
20260506233704 6 207 1.6 9.7 0.00 0.71 0.00 91 1010.6
20260506233205 6 213 3.2 12.9 0.00 0.71 0.00 91 1010.5
20260506232706 6 233 4.8 16.1 0.00 0.71 0.00 91 1010.5
20260506231705 6 240 6.4 16.1 0.00 0.71 0.00 91 1010.5
20260506231205 6 264 6.4 19.3 0.00 0.71 0.00 91 1010.5
20260506230705 6 231 6.4 19.3 0.00 0.71 0.00 91 1010.6
20260506230205 6 260 4.8 19.3 0.00 0.71 0.00 91 1010.7
20260506225705 6 205 6.4 16.1 0.00 0.71 0.00 91 1010.6
20260506225205 6 257 8.0 16.1 0.00 0.71 0.00 91 1010.6
20260506224205 6 179 8.0 16.1 0.00 0.71 0.00 92 1010.7
20260506223705 6 214 6.4 16.1 0.00 0.71 0.00 92 1010.8
20260506223205 6 269 4.8 14.5 0.00 0.71 0.00 92 1010.7
20260506222705 6 243 6.4 14.5 0.00 0.71 0.00 91 1010.7
20260506221705 6 219 4.8 11.3 0.00 0.71 0.00 91 1010.7
20260506221205 6 287 4.8 9.7 0.00 0.71 0.00 92 1010.8
20260506220705 6 245 3.2 9.7 0.00 0.71 0.00 92 1010.8
20260506220205 6 235 1.6 4.8 0.00 0.71 0.71 92 1010.8
20260506215705 7 266 1.6 4.8 0.00 0.71 0.71 92 1010.7
20260506214706 7 258 3.2 8.0 0.00 0.71 0.71 92 1010.7
20260506214205 7 221 3.2 12.9 0.00 0.71 0.71 92 1010.6
20260506213705 7 233 4.8 12.9 0.00 0.71 0.71 92 1010.6
20260506213205 7 225 4.8 12.9 0.00 0.71 0.71 92 1010.5
20260506212205 6 224 4.8 12.9 0.00 0.71 0.71 93 1010.4
20260506211704 6 248 3.2 11.3 0.00 0.71 0.71 94 1010.4
20260506211205 6 264 0.0 4.8 0.00 0.71 0.71 94 1010.4
20260506210205 6 264 1.6 6.4 0.00 0.71 0.71 94 1010.3
20260506205705 6 232 3.2 6.4 0.00 0.71 0.71 94 1010.3
20260506205205 6 269 3.2 6.4 0.00 0.71 0.71 94 1010.3
20260506204707 7 295 3.2 4.8 0.00 0.71 0.71 94 1010.2
20260506204205 7 310 1.6 4.8 0.00 0.71 0.71 94 1010.1
20260506202706 7 289 3.2 3.2 0.00 0.74 0.71 94 1010.2
20260506202205 7 271 1.6 4.8 0.00 0.74 0.71 94 1010.2
20260506201705 7 280 1.6 4.8 0.00 0.74 0.71 94 1010.2
20260506201205 7 271 1.6 4.8 0.00 0.74 0.71 94 1010.2
20260506200705 7 278 1.6 4.8 0.00 0.74 0.71 94 1010.2
20260506200205 7 236 1.6 4.8 0.00 0.74 0.71 94 1010.1
20260506195705 7 281 1.6 4.8 0.03 0.74 0.71 94 1010.1
20260506194706 7 262 1.6 6.4 0.03 0.74 0.71 94 1010.0
20260506194205 7 271 1.6 6.4 0.03 0.74 0.71 94 1010.0
20260506193705 7 290 1.6 3.2 0.03 0.74 0.71 94 1010.0
20260506193205 7 283 1.6 3.2 0.03 0.74 0.71 94 1010.0
20260506192707 7 271 1.6 3.2 0.03 0.74 0.71 94 1010.0
20260506192205 7 304 1.6 8.0 0.03 0.74 0.71 94 1009.7
20260506191704 7 298 1.6 8.0 0.03 0.74 0.71 94 1009.7
20260506191205 7 280 1.6 8.0 0.03 0.74 0.71 94 1009.7
20260506190705 7 271 1.6 4.8 0.03 0.74 0.71 94 1009.6
20260506190205 7 254 1.6 4.8 0.03 0.74 0.71 94 1009.6
20260506185705 7 277 1.6 8.0 0.00 0.71 0.71 93 1009.5
20260506184205 7 257 1.6 6.4 0.03 0.71 0.71 93 1009.4
20260506183705 7 227 1.6 3.2 0.03 0.74 0.71 93 1009.4
20260506182705 7 245 1.6 4.8 0.05 0.79 0.71 92 1009.3
20260506181705 7 250 4.8 9.7 0.05 0.79 0.71 91 1009.2
20260506181224 7 250 4.8 9.7 0.05 0.84 0.71 91 1009.2
20260506180706 7 237 3.2 8.0 0.05 0.86 0.71 91 1009.1
20260506180205 7 245 4.8 8.0 0.05 0.86 0.71 91 1009.1
20260506175705 7 221 4.8 8.0 0.03 0.84 0.69 91 1009.0
20260506174705 7 220 3.2 8.0 0.03 0.84 0.69 91 1008.9
20260506174205 7 240 3.2 11.3 0.05 0.84 0.69 91 1008.9
20260506172708 7 228 4.8 12.9 0.05 0.81 0.66 91 1008.7
20260506172205 7 261 4.8 12.9 0.05 0.81 0.66 91 1008.6
20260506171205 7 266 4.8 12.9 0.05 0.81 0.66 91 1008.4
20260506170706 7 243 4.8 12.9 0.05 0.81 0.66 91 1008.3
20260506165205 7 230 4.8 9.7 0.08 0.81 0.66 91 1008.3
20260506164706 7 221 3.2 9.7 0.08 0.81 0.66 91 1008.3
20260506164205 7 247 3.2 9.7 0.08 0.79 0.64 91 1008.3
20260506163705 7 221 3.2 11.3 0.10 0.79 0.64 91 1008.3
20260506162705 7 247 3.2 11.3 0.08 0.79 0.61 91 1008.3
20260506162216 7 228 3.2 6.4 0.10 0.79 0.61 91 1008.4
20260506161706 7 236 3.2 6.4 0.10 0.79 0.61 91 1008.3
20260506160705 7 249 3.2 11.3 0.10 0.76 0.61 91 1008.3
20260506160226 7 248 3.2 11.3 0.10 0.76 0.61 90 1008.3
20260506155705 7 230 3.2 6.4 0.08 0.74 0.58 90 1008.3
20260506155205 7 287 3.2 6.4 0.10 0.74 0.58 90 1008.4
20260506154706 7 263 3.2 6.4 0.08 0.71 0.56 90 1008.3
20260506154205 8 300 3.2 6.4 0.08 0.71 0.56 90 1008.3
20260506153704 8 262 3.2 6.4 0.08 0.71 0.53 89 1008.3
20260506153205 8 248 3.2 4.8 0.08 0.71 0.53 90 1008.3
20260506152705 8 283 1.6 4.8 0.08 0.71 0.53 90 1008.3
20260506152205 8 280 1.6 4.8 0.05 0.69 0.51 90 1008.2
20260506151705 8 299 1.6 4.8 0.05 0.69 0.51 90 1008.2
20260506151205 8 229 1.6 12.9 0.05 0.71 0.51 90 1008.2
20260506150705 8 307 3.2 14.5 0.05 0.76 0.51 90 1008.1
20260506150205 8 198 4.8 14.5 0.05 0.86 0.51 88 1008.2
20260506145705 8 288 4.8 14.5 0.05 0.86 0.51 88 1008.1
20260506145205 8 255 3.2 8.0 0.05 0.84 0.48 89 1008.1